| time (UTC) | temp C | wind direction | speed KPH | gust KPH | rain 1hr cm | rain 24hr cm | rain mn cm | humidity % | barometer mb |
| 20260904175306 | 29 | 166 | 4.8 | 9.7 | 0.00 | 0.03 | 0.03 | 73 | 1010.6 |
| 20260904174805 | 29 | 141 | 4.8 | 8.0 | 0.00 | 0.03 | 0.03 | 71 | 1010.6 |
| 20260904174305 | 28 | 107 | 6.4 | 9.7 | 0.00 | 0.03 | 0.03 | 71 | 1010.6 |
| 20260904173805 | 28 | 116 | 4.8 | 9.7 | 0.00 | 0.03 | 0.03 | 71 | 1010.6 |
| 20260904172305 | 29 | 157 | 4.8 | 9.7 | 0.00 | 0.03 | 0.03 | 73 | 1010.6 |
| 20260904171805 | 29 | 119 | 3.2 | 9.7 | 0.00 | 0.03 | 0.03 | 73 | 1010.6 |
| 20260904171304 | 29 | 100 | 6.4 | 11.3 | 0.00 | 0.03 | 0.03 | 72 | 1010.6 |
| 20260904165805 | 30 | 89 | 4.8 | 9.7 | 0.00 | 0.03 | 0.03 | 72 | 1010.4 |
| 20260904165305 | 30 | 85 | 6.4 | 11.3 | 0.00 | 0.03 | 0.03 | 70 | 1010.5 |
| 20260904164305 | 30 | 71 | 8.0 | 14.5 | 0.00 | 0.03 | 0.03 | 64 | 1010.6 |
| 20260904163804 | 30 | 74 | 8.0 | 14.5 | 0.00 | 0.03 | 0.03 | 64 | 1010.5 |
| 20260904162806 | 31 | 49 | 9.7 | 19.3 | 0.00 | 0.03 | 0.03 | 62 | 1010.6 |
| 20260904161804 | 30 | 16 | 9.7 | 24.1 | 0.00 | 0.03 | 0.03 | 61 | 1010.7 |
| 20260904155804 | 30 | 7 | 14.5 | 19.3 | 0.00 | 0.03 | 0.03 | 63 | 1010.8 |
| 20260904155306 | 30 | 20 | 14.5 | 24.1 | 0.00 | 0.03 | 0.03 | 64 | 1010.8 |
| 20260904153305 | 29 | 16 | 19.3 | 27.4 | 0.00 | 0.03 | 0.03 | 68 | 1010.9 |
| 20260904145306 | 28 | 10 | 14.5 | 25.7 | 0.00 | 0.03 | 0.03 | 72 | 1010.8 |
| 20260904143304 | 28 | 5 | 17.7 | 32.2 | 0.00 | 0.03 | 0.03 | 74 | 1010.8 |
| 20260904141805 | 27 | 5 | 16.1 | 24.1 | 0.00 | 0.03 | 0.03 | 76 | 1010.9 |
| 20260904140804 | 27 | 351 | 16.1 | 20.9 | 0.00 | 0.03 | 0.03 | 78 | 1010.9 |
| 20260904140304 | 27 | 350 | 17.7 | 24.1 | 0.00 | 0.03 | 0.03 | 77 | 1010.8 |
| 20260904135805 | 27 | 351 | 20.9 | 27.4 | 0.00 | 0.03 | 0.03 | 77 | 1010.8 |
| 20260904135306 | 27 | 347 | 20.9 | 25.7 | 0.00 | 0.03 | 0.03 | 78 | 1010.8 |
| 20260904132306 | 26 | 346 | 14.5 | 24.1 | 0.00 | 0.03 | 0.03 | 80 | 1010.5 |
| 20260904130804 | 26 | 330 | 16.1 | 25.7 | 0.00 | 0.03 | 0.03 | 81 | 1010.6 |
| 20260904125804 | 26 | 331 | 12.9 | 20.9 | 0.00 | 0.03 | 0.03 | 81 | 1010.6 |
| 20260904124805 | 26 | 326 | 14.5 | 22.5 | 0.00 | 0.03 | 0.03 | 81 | 1010.5 |
| 20260904124304 | 26 | 322 | 14.5 | 20.9 | 0.00 | 0.03 | 0.03 | 82 | 1010.5 |
| 20260904123805 | 26 | 317 | 11.3 | 20.9 | 0.00 | 0.03 | 0.03 | 82 | 1010.5 |
| 20260904123305 | 26 | 321 | 14.5 | 25.7 | 0.00 | 0.03 | 0.03 | 82 | 1010.6 |
| 20260904122804 | 25 | 313 | 11.3 | 27.4 | 0.00 | 0.03 | 0.03 | 83 | 1010.6 |
| 20260904121305 | 25 | 317 | 11.3 | 25.7 | 0.00 | 0.03 | 0.03 | 84 | 1010.6 |
| 20260904120805 | 25 | 297 | 12.9 | 25.7 | 0.00 | 0.03 | 0.03 | 85 | 1010.6 |
| 20260904115306 | 25 | 298 | 9.7 | 19.3 | 0.00 | 0.03 | 0.03 | 86 | 1010.3 |
| 20260904114805 | 25 | 291 | 9.7 | 24.1 | 0.00 | 0.03 | 0.03 | 87 | 1010.4 |
| 20260904114305 | 25 | 283 | 8.0 | 19.3 | 0.00 | 0.03 | 0.03 | 87 | 1010.4 |
| 20260904113805 | 24 | 279 | 4.8 | 19.3 | 0.00 | 0.03 | 0.03 | 87 | 1010.4 |
| 20260904112805 | 24 | 292 | 6.4 | 14.5 | 0.00 | 0.03 | 0.03 | 87 | 1010.2 |
| 20260904112306 | 24 | 276 | 8.0 | 16.1 | 0.00 | 0.03 | 0.03 | 87 | 1010.2 |
| 20260904111305 | 24 | 290 | 8.0 | 20.9 | 0.00 | 0.03 | 0.03 | 87 | 1010.2 |
| 20260904105804 | 24 | 271 | 4.8 | 19.3 | 0.00 | 0.03 | 0.03 | 87 | 1010.0 |
| 20260904105306 | 24 | 271 | 8.0 | 16.1 | 0.00 | 0.03 | 0.03 | 87 | 1010.0 |
| 20260904103304 | 25 | 276 | 8.0 | 19.3 | 0.00 | 0.05 | 0.03 | 87 | 1010.0 |
| 20260904102805 | 25 | 266 | 4.8 | 14.5 | 0.00 | 0.05 | 0.03 | 87 | 1010.0 |
| 20260904100804 | 25 | 262 | 4.8 | 11.3 | 0.00 | 0.15 | 0.03 | 88 | 1009.9 |
| 20260904095306 | 25 | 276 | 8.0 | 16.1 | 0.00 | 0.23 | 0.03 | 88 | 1009.7 |
| 20260904094805 | 25 | 259 | 8.0 | 19.3 | 0.00 | 0.25 | 0.03 | 88 | 1009.7 |
| 20260904091304 | 25 | 263 | 4.8 | 16.1 | 0.00 | 0.30 | 0.03 | 88 | 1009.8 |
| 20260904085805 | 25 | 272 | 4.8 | 12.9 | 0.00 | 0.33 | 0.03 | 88 | 1009.9 |
| 20260904085306 | 25 | 264 | 4.8 | 14.5 | 0.00 | 0.33 | 0.03 | 88 | 1010.0 |
| 20260904084804 | 25 | 275 | 4.8 | 19.3 | 0.00 | 0.33 | 0.03 | 88 | 1009.9 |
| 20260904082804 | 25 | 265 | 6.4 | 14.5 | 0.00 | 0.33 | 0.03 | 87 | 1009.9 |
| 20260904081804 | 25 | 244 | 4.8 | 16.1 | 0.00 | 0.33 | 0.03 | 86 | 1009.8 |
| 20260904075805 | 25 | 257 | 8.0 | 16.1 | 0.00 | 0.36 | 0.03 | 86 | 1009.8 |
| 20260904075306 | 25 | 259 | 8.0 | 19.3 | 0.00 | 0.36 | 0.03 | 87 | 1009.8 |
| 20260904074305 | 25 | 255 | 8.0 | 19.3 | 0.00 | 0.41 | 0.03 | 87 | 1009.7 |
| 20260904071804 | 25 | 236 | 4.8 | 11.3 | 0.00 | 0.76 | 0.03 | 86 | 1009.5 |
| 20260904071305 | 25 | 242 | 4.8 | 11.3 | 0.00 | 0.94 | 0.03 | 86 | 1009.5 |
| 20260904070804 | 25 | 232 | 8.0 | 12.9 | 0.00 | 1.14 | 0.03 | 86 | 1009.5 |
| 20260904065306 | 25 | 245 | 4.8 | 9.7 | 0.03 | 2.77 | 0.03 | 86 | 1009.6 |
| 20260904063804 | 25 | 239 | 3.2 | 11.3 | 0.03 | 2.79 | 0.03 | 86 | 1009.7 |
| 20260904060304 | 25 | 274 | 3.2 | 4.8 | 0.03 | 2.79 | 0.03 | 85 | 1010.4 |
| 20260904054804 | 26 | 264 | 1.6 | 4.8 | 0.00 | 2.77 | 0.00 | 84 | 1010.3 |
| 20260904054304 | 26 | 272 | 3.2 | 9.7 | 0.00 | 2.77 | 0.00 | 83 | 1010.8 |
| 20260904052804 | 26 | 263 | 3.2 | 4.8 | 0.00 | 2.77 | 0.00 | 82 | 1010.8 |
| 20260904052307 | 26 | 264 | 3.2 | 4.8 | 0.00 | 2.77 | 0.00 | 82 | 1010.7 |
| 20260904051804 | 26 | 263 | 3.2 | 4.8 | 0.00 | 2.77 | 0.00 | 82 | 1010.8 |
| 20260904051304 | 26 | 263 | 3.2 | 4.8 | 0.00 | 2.77 | 0.00 | 82 | 1010.8 |
| 20260904050804 | 26 | 267 | 3.2 | 9.7 | 0.00 | 2.77 | 0.00 | 82 | 1010.9 |
| 20260904045306 | 26 | 266 | 3.2 | 9.7 | 0.00 | 2.77 | 0.00 | 82 | 1010.9 |
| 20260904043304 | 26 | 243 | 4.8 | 9.7 | 0.00 | 2.77 | 0.00 | 82 | 1011.0 |
| 20260904042306 | 26 | 245 | 3.2 | 8.0 | 0.00 | 2.77 | 0.00 | 82 | 1011.1 |
| 20260904041804 | 26 | 240 | 3.2 | 4.8 | 0.00 | 2.77 | 0.00 | 82 | 1011.2 |
| 20260904034304 | 26 | 258 | 4.8 | 8.0 | 0.00 | 2.77 | 2.77 | 83 | 1011.8 |
| 20260904033804 | 26 | 255 | 4.8 | 11.3 | 0.00 | 2.77 | 2.77 | 83 | 1011.8 |
| 20260904032306 | 26 | 269 | 6.4 | 16.1 | 0.00 | 2.77 | 2.77 | 83 | 1012.0 |
| 20260904031804 | 26 | 264 | 4.8 | 8.0 | 0.00 | 2.77 | 2.77 | 83 | 1012.0 |
| 20260904031304 | 26 | 266 | 3.2 | 4.8 | 0.00 | 2.77 | 2.77 | 83 | 1011.8 |
| 20260904030804 | 26 | 264 | 3.2 | 9.7 | 0.00 | 2.77 | 2.77 | 83 | 1011.6 |
| 20260904030304 | 26 | 263 | 3.2 | 4.8 | 0.00 | 2.77 | 2.77 | 83 | 1011.6 |
| 20260904025804 | 26 | 279 | 3.2 | 8.0 | 0.00 | 2.77 | 2.77 | 83 | 1011.6 |
| 20260904025306 | 26 | 273 | 3.2 | 9.7 | 0.00 | 2.77 | 2.77 | 83 | 1011.7 |
| 20260904024304 | 26 | 271 | 4.8 | 9.7 | 0.00 | 2.77 | 2.77 | 83 | 1011.8 |
| 20260904023304 | 26 | 255 | 3.2 | 8.0 | 0.00 | 2.77 | 2.77 | 83 | 1012.1 |
| 20260904022305 | 26 | 262 | 3.2 | 4.8 | 0.00 | 2.77 | 2.77 | 83 | 1012.1 |
| 20260904020804 | 26 | 265 | 3.2 | 4.8 | 0.00 | 2.77 | 2.77 | 83 | 1012.4 |
| 20260904014304 | 27 | 266 | 1.6 | 8.0 | 0.00 | 2.77 | 2.77 | 82 | 1012.4 |
| 20260904013804 | 27 | 256 | 3.2 | 8.0 | 0.00 | 2.77 | 2.77 | 82 | 1012.4 |
| 20260904012306 | 27 | 252 | 4.8 | 9.7 | 0.00 | 2.77 | 2.77 | 82 | 1012.3 |
| 20260904010804 | 27 | 243 | 4.8 | 14.5 | 0.00 | 2.77 | 2.77 | 83 | 1012.3 |
| 20260904010304 | 27 | 242 | 4.8 | 9.7 | 0.00 | 2.77 | 2.77 | 83 | 1012.4 |
| 20260904005804 | 27 | 264 | 4.8 | 8.0 | 0.00 | 2.77 | 2.77 | 83 | 1012.4 |
| 20260904004804 | 27 | 257 | 3.2 | 8.0 | 0.00 | 2.77 | 2.77 | 83 | 1012.5 |
| 20260904004305 | 27 | 265 | 3.2 | 8.0 | 0.00 | 2.77 | 2.77 | 83 | 1012.5 |
| 20260904002306 | 27 | 256 | 3.2 | 8.0 | 0.00 | 2.77 | 2.77 | 82 | 1012.2 |
| 20260904000805 | 27 | 255 | 3.2 | 4.8 | 0.00 | 2.77 | 2.77 | 81 | 1012.1 |
| 20260903235805 | 28 | 266 | 3.2 | 8.0 | 0.00 | 2.77 | 2.77 | 80 | 1011.9 |
| 20260903233805 | 28 | 271 | 3.2 | 4.8 | 0.00 | 2.77 | 2.77 | 78 | 1011.7 |
| 20260903233305 | 28 | 268 | 3.2 | 4.8 | 0.00 | 2.77 | 2.77 | 77 | 1011.6 |
| 20260903231805 | 29 | 277 | 1.6 | 4.8 | 0.00 | 2.77 | 2.77 | 76 | 1011.8 |
| 20260903231305 | 29 | 277 | 1.6 | 4.8 | 0.00 | 2.77 | 2.77 | 75 | 1011.6 |
| 20260903225805 | 30 | 271 | 3.2 | 9.7 | 0.00 | 2.77 | 2.77 | 72 | 1011.4 |
| 20260903224804 | 30 | 280 | 1.6 | 4.8 | 0.00 | 2.77 | 2.77 | 73 | 1011.3 |
| 20260903224305 | 30 | 286 | 1.6 | 4.8 | 0.00 | 2.77 | 2.77 | 73 | 1011.3 |
| 20260903222805 | 30 | 270 | 3.2 | 9.7 | 0.00 | 2.77 | 2.77 | 72 | 1011.3 |
| 20260903221304 | 31 | 271 | 4.8 | 9.7 | 0.00 | 2.77 | 2.77 | 71 | 1011.3 |
| 20260903220805 | 31 | 268 | 4.8 | 14.5 | 0.00 | 2.77 | 2.77 | 70 | 1011.3 |
| 20260903220306 | 31 | 265 | 4.8 | 11.3 | 0.00 | 2.77 | 2.77 | 70 | 1011.3 |
| 20260903215804 | 31 | 278 | 8.0 | 14.5 | 0.00 | 2.77 | 2.77 | 68 | 1011.4 |
| 20260903213805 | 31 | 257 | 6.4 | 14.5 | 0.00 | 2.77 | 2.77 | 66 | 1011.0 |
| 20260903213305 | 31 | 250 | 4.8 | 9.7 | 0.00 | 2.77 | 2.77 | 67 | 1011.0 |
| 20260903212805 | 32 | 271 | 6.4 | 16.1 | 0.00 | 2.77 | 2.77 | 67 | 1011.1 |
| 20260903212306 | 31 | 252 | 4.8 | 9.7 | 0.00 | 2.77 | 2.77 | 67 | 1011.1 |
| 20260903211805 | 31 | 256 | 4.8 | 14.5 | 0.00 | 2.77 | 2.77 | 67 | 1011.1 |
| 20260903211305 | 31 | 266 | 4.8 | 9.7 | 0.00 | 2.77 | 2.77 | 68 | 1011.2 |
| 20260903210805 | 31 | 259 | 4.8 | 14.5 | 0.00 | 2.77 | 2.77 | 67 | 1011.1 |
| 20260903205806 | 31 | 260 | 4.8 | 9.7 | 0.00 | 2.77 | 2.77 | 68 | 1011.2 |
| 20260903205306 | 31 | 241 | 4.8 | 11.3 | 0.00 | 2.77 | 2.77 | 69 | 1011.2 |
| 20260903195805 | 32 | 272 | 3.2 | 11.3 | 0.00 | 2.77 | 2.77 | 67 | 1011.7 |
| 20260903192805 | 32 | 253 | 4.8 | 11.3 | 0.00 | 2.77 | 2.77 | 67 | 1012.0 |
| 20260903191804 | 32 | 252 | 6.4 | 12.9 | 0.00 | 2.77 | 2.77 | 67 | 1012.1 |
| 20260903191304 | 32 | 247 | 8.0 | 14.5 | 0.00 | 2.77 | 2.77 | 65 | 1012.1 |
| 20260903190804 | 32 | 251 | 6.4 | 11.3 | 0.00 | 2.77 | 2.77 | 66 | 1012.1 |
| 20260903185804 | 32 | 274 | 4.8 | 11.3 | 0.00 | 2.77 | 2.77 | 66 | 1012.3 |
| 20260903184305 | 30 | 270 | 4.8 | 9.7 | 0.00 | 2.77 | 2.77 | 74 | 1012.3 |
| 20260903182805 | 30 | 236 | 8.0 | 19.3 | 0.00 | 2.77 | 2.77 | 73 | 1012.5 |
| 20260903182306 | 30 | 248 | 11.3 | 20.9 | 0.00 | 2.77 | 2.77 | 73 | 1012.5 |
| 20260903181804 | 30 | 226 | 8.0 | 19.3 | 0.00 | 2.77 | 2.77 | 73 | 1012.6 |
| 20260903180805 | 31 | 240 | 9.7 | 19.3 | 0.00 | 2.77 | 2.77 | 71 | 1012.8 |